Zurück zum Katalog

DELTA 1 DEB

AktivPO
NORAD 21565·DEBRIS·🇺🇸 United States

Gestartet Jun 12, 1975 von Vandenberg Space Force Base

Loading…

Nächste Überflüge (nächste 24 Stunden)

TLE

AktuellSource: Space-Track

Epoche: Sep 14, 2026, 06:51 UTC

1 21565U 75052HK  26257.28599986  .00000327  00000-0  11592-2 0  9998
2 21565  99.8302  17.3513 0367682 130.5846 262.8239 12.82059222645573

Verfolge DELTA 1 DEB in Echtzeit mit AllMySat

Download on the App Store